Location: Chippewa Lake
(41.0698°N, 81.9010°W)
Time: 01:28:57
(UTC+00:00)

USA 215 - Pass Details

Date: 09 May 2021
Orbit: 1100 x 1107 km, 123.0° (Epoch: 22 June)

Event Time Altitude Azimuth Distance (km) Brightness Sun altitude
Exits shadow 06:51:32 37° 273° (W) 1,653 4.0 -28.1°
Drops below altitude 10° 06:55:47 10° 303° (WNW) 2,960 5.6 -27.7°
Sets 06:58:24 0° 309° (NW) 3,921 6.3 -27.5°
